Regional Weather Roundup
Issued by NWS

Home | Current Version | Previous Version | Graphics & Text | Print | Product List | Glossary On
Versions: 1 2 3 4 5 6 7 8 9 10 11 12 13 14 15 16 17 18 19 20 21 22 23 24 25 26 27 28 29 30 31 32 33 34 35 36 37 38 39 40 41 42 43 44 45 46 47 48 49 50
000
ASUS43 KOAX 191910
RWRNE

WEATHER ROUNDUP FOR NEBRASKA
NATIONAL WEATHER SERVICE OMAHA NE
200 PM CDT SUN OCT 19 2014

NOTES: SATELLITE DATA IS BEING USED TO AUGMENT CLOUD COVER ABOVE
       12000 FEET.
       "FAIR" INDICATES FEW OR NO CLOUDS BELOW 12,000 FEET WITH NO
       SIGNIFICANT WEATHER AND/OR OBSTRUCTIONS TO VISIBILITY.

  * THESE STATIONS DO NOT REPORT WEATHER SUCH AS RAIN...SNOW OR FOG.

NEZ001>004-019>022-054>056-192000-
NEBRASKA PANHANDLE

CITY           SKY/WX    TMP DP  RH WIND       PRES   REMARKS
SCOTTSBLUFF    SUNNY     71  43  36 MISG      30.08F
ALLIANCE       SUNNY     72  39  30 E7        30.06F
CHADRON        SUNNY     70  42  36 CALM      30.06F
KIMBALL        SUNNY     70  35  27 NE9       30.10F
SIDNEY         SUNNY     71  40  32 NE10      30.08F
$$

NEZ057>060-069>072-079>082-192000-
SOUTHWEST NEBRASKA

CITY           SKY/WX    TMP DP  RH WIND       PRES   REMARKS
NORTH PLATTE   SUNNY     66  45  46 SW5       30.01F
IMPERIAL       SUNNY     73  43  33 NE7       30.02F
LEXINGTON      SUNNY     69  47  46 CALM      30.00F
MCCOOK         SUNNY     68  46  45 VRB3      30.01F
OGALLALA       SUNNY     76  44  31 E7        30.02F
$$

NEZ005>010-023>029-035>040-094-192000-
NORTH CENTRAL NEBRASKA

CITY           SKY/WX    TMP DP  RH WIND       PRES   REMARKS
VALENTINE      SUNNY     78  37  22 N13       29.99F
AINSWORTH      SUNNY     74  39  29 N8        29.99F
BROKEN BOW     SUNNY     71  47  42 W3        29.99F
O`NEILL        SUNNY     74  44  33 NW6       29.96F
ORD            SUNNY     69  45  41 W8        29.97F
THEDFORD       SUNNY     76  40  27 NE12      30.01F
$$

NEZ041-046>049-061>064-073>077-083>087-192000-
SOUTH CENTRAL NEBRASKA

CITY           SKY/WX    TMP DP  RH WIND       PRES   REMARKS
GRAND ISLAND   SUNNY     71  47  42 SW12      30.00F
AURORA         SUNNY     71  42  35 SW12G18   29.99F
HASTINGS       SUNNY     69  42  37 SW10G20   30.00F
HEBRON         SUNNY     69  44  40 S9G17     30.02F
HOLDREGE       SUNNY     68  46  46 SW7       30.00F
KEARNEY *      SUNNY     66  46  48 S9        30.02S
$$

NEZ011>018-030>034-042>045-192000-
NORTHEAST NEBRASKA

CITY           SKY/WX    TMP DP  RH WIND       PRES   REMARKS
NORFOLK        SUNNY     71  47  42 SW13G20   29.94F
ALBION         SUNNY     69  46  44 SW7       29.97F
BLAIR          PTSUNNY   68  46  44 SW13      29.98F
COLUMBUS *     MOSUNNY   68  46  45 SW10      29.98F
FREMONT        PTSUNNY   70  47  43 SW14G22   29.98F
TEKAMAH        PTSUNNY   70  45  40 SW15      29.96F
WAYNE          MOSUNNY   71  46  42 SW12G18   29.94F
$$

NEZ050>053-065>068-078-088>093-192000-
SOUTHEAST NEBRASKA

CITY           SKY/WX    TMP DP  RH WIND       PRES   REMARKS
LINCOLN        SUNNY     71  46  40 SW18      30.00F
OMAHA EPPLEY   PTSUNNY   68  45  43 SW13      29.98F
BEATRICE       SUNNY     68  48  47 SW10      30.02F
FALLS CITY     SUNNY     68  49  50 S12       30.03F
NEBRASKA CITY  SUNNY     68  40  36 SW16G22   30.02F
PLATTSMOUTH    MOSUNNY   68  43  39 S14G21    30.00F
$$

NEZ044-045-051>053-067-192000-
OMAHA AREA

CITY           SKY/WX    TMP DP  RH WIND       PRES   REMARKS
OMAHA EPPLEY   PTSUNNY   68  45  43 SW13      29.98F
BLAIR          PTSUNNY   68  46  44 SW13      29.98F
FREMONT        PTSUNNY   70  47  43 SW14G22   29.98F
MILLARD        PTSUNNY   68  47  46 SW6       29.98F
OFFUTT AFB     PTSUNNY   69  48  47 SW9       29.98F
PLATTSMOUTH    MOSUNNY   68  43  39 S14G21    30.00F
WAHOO          FAIR      71  43  35 SW13G18   29.97F
$$



USA.gov is the U.S. government's official web portal to all federal, state and local government web resources and services.